Location: Cherry Springs State Park
(41.6616°N, 77.8240°W)
Time: 18:59:54
(UTC-04:00)

Amateur Radio Satellites - All Passes

Search period start: 24 April 2017 18:29
Search period end: 25 April 2017 18:29
Location: Cherry Springs State Park, 41.6616°N, 77.8240°W

Satellite Date Start Highest point End Downlink Frequencies (MHz)
Time Altitude Azimuth
XW-2F 24 Apr 18:41:55 18:45:37 75° 258° (WSW) 18:49:22 145.980 - 146.000
STARS 24 Apr 18:46:23 18:50:43 64° 287° (WNW) 18:55:01 437.465
YUBILEINY 24 Apr 18:47:04 18:51:15 15° 285° (WNW) 18:55:28 435.215
DOVE 4 24 Apr 18:50:39 18:55:43 46° 262° (W) 19:00:47 437.250
CUTE-I 24 Apr 18:57:42 19:03:01 65° 258° (WSW) 19:08:21 437.470
NUDT-PHONESAT 24 Apr 19:01:02 19:04:36 51° 260° (W) 19:08:12 437.300
XW-2D 24 Apr 19:31:20 19:33:54 18° 267° (W) 19:36:30 145.860 - 145.880
NO-84 24 Apr 19:34:35 19:35:43 11° 126° (SE) 19:36:50 435.350 FM
STRAND 1 24 Apr 19:36:21 19:39:55 19° 92° (E) 19:43:29 437.568
CUTE 1.7 + AOD 2 24 Apr 19:37:41 19:41:48 58° 74° (ENE) 19:45:59 437.475
XW-2B 24 Apr 19:38:34 19:40:49 15° 268° (W) 19:43:05 145.730 - 145.750
AAUSAT CUBESAT 2 24 Apr 19:43:07 19:46:14 21° 67° (ENE) 19:49:22 437.432
HO-68 24 Apr 19:43:19 19:50:27 83° 73° (ENE) 19:57:40 435.675
RS-15 24 Apr 19:43:59 19:52:41 24° 261° (W) 20:01:07 29.354- 29.394
AO-73 24 Apr 19:47:01 19:47:57 11° 62° (ENE) 19:48:53 145.935
LilacSat-2 24 Apr 19:47:45 19:49:06 12° 269° (W) 19:50:26 437.200
XW-2A 24 Apr 19:48:36 19:51:58 89° 81° (E) 19:55:20 145.665 - 145.685
XW-2C 24 Apr 19:51:48 19:52:45 11° 270° (W) 19:53:41 145.795 - 145.815
KAITUO 1B 24 Apr 19:54:45 19:56:15 12° 269° (W) 19:57:44 145.475/437.950
SEEDS 24 Apr 20:02:14 20:06:24 72° 75° (ENE) 20:10:36 437.485
Oscar 11 24 Apr 20:03:56 20:06:19 15° 64° (ENE) 20:08:43 .
O/OREOS (USA 219) 24 Apr 20:05:49 20:09:16 21° 55° (NE) 20:12:42 437.305
UWE-3 24 Apr 20:10:38 20:14:35 37° 72° (ENE) 20:18:29 435.000/436.395/437.385
CUBEBUG 2 24 Apr 20:18:19 20:22:43 78° 76° (ENE) 20:27:01 437.445
M-CUBED/EXP-1 PRIME 24 Apr 20:38:20 20:42:34 59° 105° (ESE) 20:46:26 437.505
DELFI C3 24 Apr 20:49:56 20:51:36 12° 63° (ENE) 20:53:16 145.870
NO-84 24 Apr 21:09:17 21:12:55 80° 320° (NW) 21:16:14 435.350 FM
AO-85 24 Apr 21:10:43 21:13:06 15° 42° (NE) 21:15:30 145.980
ZACube-1 24 Apr 21:11:06 21:15:20 80° 258° (WSW) 21:19:31 437.345
STRAND 1 24 Apr 21:14:26 21:19:23 51° 289° (WNW) 21:24:19 437.568
CUTE 1.7 + AOD 2 24 Apr 21:16:29 21:18:01 12° 270° (W) 21:19:33 437.475
AAUSAT CUBESAT 2 24 Apr 21:17:46 21:21:29 32° 264° (W) 21:25:15 437.432
AO-73 24 Apr 21:19:26 21:23:36 71° 258° (WSW) 21:27:46 145.935
HO-68 24 Apr 21:34:24 21:38:57 18° 270° (W) 21:43:32 435.675
Oscar 11 24 Apr 21:37:49 21:42:00 53° 260° (W) 21:46:14 .
O/OREOS (USA 219) 24 Apr 21:44:32 21:48:54 43° 253° (WSW) 21:53:11 437.305
UWE-3 24 Apr 21:48:10 21:51:09 18° 267° (W) 21:54:08 435.000/436.395/437.385
OBJECT BX 24 Apr 22:02:44 22:06:20 63° 74° (ENE) 22:09:56 145.990 - 145.960
M-CUBED/EXP-1 PRIME 24 Apr 22:14:10 22:16:26 14° 304° (NW) 22:18:36 437.505
FO-29 24 Apr 22:21:02 22:24:04 15° 92° (E) 22:27:10 435.910
DELFI C3 24 Apr 22:21:59 22:25:52 55° 259° (W) 22:29:49 145.870
ESTCUBE 1 24 Apr 22:41:47 22:44:42 17° 64° (ENE) 22:47:38 437.505/2401.250
TIGRISAT 24 Apr 22:42:35 22:46:17 28° 96° (E) 22:50:00 435.000
NO-84 24 Apr 22:48:52 22:50:51 15° 336° (NNW) 22:52:45 435.350 FM
AO-85 24 Apr 22:49:53 22:53:50 63° 240° (WSW) 22:57:56 145.980
BEESAT 2 24 Apr 22:59:12 23:01:35 15° 41° (NE) 23:03:57 435.950
UNISAT 6 24 Apr 23:02:46 23:06:58 52° 100° (E) 23:11:10 437.425
BEESAT 3 24 Apr 23:04:36 23:08:18 34° 50° (NE) 23:11:57 437.485
PRISM 24 Apr 23:11:07 23:15:17 75° 285° (WNW) 23:19:24 437.425
LO-87 24 Apr 23:13:58 23:17:34 61° 75° (ENE) 23:21:10 145.935 - 145.965
AIST 2D 24 Apr 23:35:31 23:37:15 13° 92° (E) 23:39:01 435.315
QB50P2 24 Apr 23:49:52 23:51:46 13° 91° (E) 23:53:40 145.880/145.840
50 SAT 25 Apr 00:03:55 00:06:06 16° 67° (ENE) 00:08:16 437.505
DX 1 25 Apr 00:04:21 00:06:45 15° 62° (ENE) 00:09:07 434.975-435.025
FO-29 25 Apr 00:04:29 00:09:36 61° 287° (WNW) 00:14:57 435.910
NANOSAT C BR1 25 Apr 00:13:03 00:16:07 20° 94° (E) 00:19:10 145.865
ESTCUBE 1 25 Apr 00:16:45 00:21:06 49° 261° (W) 00:25:30 437.505/2401.250
TIGRISAT 25 Apr 00:19:23 00:22:52 25° 292° (WNW) 00:26:22 435.000
SPROUT 25 Apr 00:22:23 00:26:31 49° 73° (ENE) 00:30:39 437.525
BEESAT 2 25 Apr 00:35:45 00:39:49 70° 239° (WSW) 00:43:48 435.950
EO-79 25 Apr 00:38:43 00:42:43 41° 99° (E) 00:46:41 145.935-145.965
VELOX 1 25 Apr 00:39:07 00:43:34 83° 78° (ENE) 00:48:04 145.980
UNISAT 6 25 Apr 00:40:52 00:43:15 15° 296° (WNW) 00:45:39 437.425
BEESAT 3 25 Apr 00:42:33 00:45:42 22° 247° (WSW) 00:48:50 437.485
DUCHIFAT 1 25 Apr 00:43:24 00:47:18 38° 98° (E) 00:51:11 145.980
AIST 2D 25 Apr 01:07:23 01:10:37 35° 287° (WNW) 01:13:50 435.315
UKube-1 25 Apr 01:09:41 01:13:50 47° 72° (ENE) 01:18:00 .
POLYITAN 1 25 Apr 01:17:12 01:21:23 69° 286° (WNW) 01:25:33 437.675
QB50P2 25 Apr 01:23:46 01:27:52 53° 287° (WNW) 01:31:58 145.880/145.840
50 SAT 25 Apr 01:35:41 01:38:47 30° 263° (W) 01:41:55 437.505
DX 1 25 Apr 01:38:07 01:42:26 57° 259° (W) 01:46:47 434.975-435.025
Oscar 19 25 Apr 01:41:23 01:45:09 20° 93° (E) 01:48:52 437.125/150
NANOSAT C BR1 25 Apr 01:48:06 01:51:54 34° 290° (WNW) 01:55:41 145.865
BUGSAT 1 25 Apr 01:53:45 01:57:47 78° 104° (ESE) 02:01:47 437.445
ITUPSAT 1 25 Apr 01:54:52 01:57:09 14° 60° (ENE) 01:59:26 437.325
SPROUT 25 Apr 02:00:19 02:02:41 14° 269° (W) 02:05:03 437.525
PCSat 25 Apr 02:06:53 02:10:19 17° 105° (ESE) 02:13:45 145.827
NO-84 25 Apr 02:07:08 02:08:21 12° 20° (NNE) 02:09:33 435.350 FM
EO-79 25 Apr 02:15:24 02:18:09 17° 295° (WNW) 02:20:54 145.935-145.965
DUCHIFAT 1 25 Apr 02:19:48 02:22:41 18° 294° (WNW) 02:25:34 145.980
UKube-1 25 Apr 02:47:32 02:50:06 15° 268° (W) 02:52:41 .
BEESAT 25 Apr 02:50:37 02:55:09 47° 71° (ENE) 02:59:42 436.000
MOZHAYETS 4 25 Apr 03:02:49 03:06:41 28° 68° (ENE) 03:10:34
Gurwin Techsat 1B 25 Apr 03:04:40 03:10:00 69° 102° (ESE) 03:15:17 435.225
Oscar 19 25 Apr 03:19:41 03:24:44 51° 289° (WNW) 03:29:44 437.125/150
ITUPSAT 1 25 Apr 03:29:37 03:34:22 72° 258° (WSW) 03:39:08 437.325
KKS-1 25 Apr 03:32:34 03:33:58 11° 60° (ENE) 03:35:22 437.445
NO-84 25 Apr 03:43:29 03:46:22 71° 40° (NE) 03:49:11 435.350 FM
PCSat 25 Apr 03:47:44 03:53:07 66° 302° (WNW) 03:58:33 145.827
CUBESAT XI-V 25 Apr 03:49:34 03:52:24 16° 63° (ENE) 03:55:13 437.345
YUBILEINY 25 Apr 03:53:58 04:00:37 26° 81° (E) 04:07:18 435.215
AO-7 25 Apr 04:09:25 04:17:07 40° 99° (E) 04:24:46 .
STARS 25 Apr 04:09:36 04:11:19 12° 61° (ENE) 04:13:01 437.465
BEESAT 25 Apr 04:29:53 04:33:09 18° 267° (W) 04:36:27 436.000
MOZHAYETS 4 25 Apr 04:39:52 04:43:46 28° 264° (W) 04:47:44
ITAMSAT 1 25 Apr 04:40:55 04:46:07 83° 105° (ESE) 04:51:18 435.822/435.867
Gurwin Techsat 1B 25 Apr 04:46:05 04:49:20 17° 300° (WNW) 04:52:36 435.225
KKS-1 25 Apr 05:05:23 05:09:52 79° 256° (WSW) 05:14:22 437.445
CUBESAT XI-V 25 Apr 05:24:44 05:29:17 56° 260° (W) 05:33:54 437.345
PCSat 25 Apr 05:35:00 05:37:35 13° 323° (NW) 05:40:11 145.827
STARS 25 Apr 05:42:39 05:47:03 72° 257° (WSW) 05:51:29 437.465
YUBILEINY 25 Apr 05:47:58 05:56:36 68° 280° (W) 06:05:18 435.215
RS-15 25 Apr 05:50:10 05:53:31 12° 92° (E) 05:56:53 29.354- 29.394
M-CUBED/EXP-1 PRIME 25 Apr 05:53:17 05:54:05 10° 53° (NE) 05:54:52 437.505
AO-7 25 Apr 06:02:07 06:09:57 48° 297° (WNW) 06:17:48 .
XW-2F 25 Apr 06:16:05 06:17:02 11° 90° (E) 06:17:58 145.980 - 146.000
ITAMSAT 1 25 Apr 06:22:25 06:24:52 14° 301° (WNW) 06:27:18 435.822/435.867
NUDT-PHONESAT 25 Apr 06:32:24 06:34:23 14° 92° (E) 06:36:22 437.300
DOVE 4 25 Apr 06:49:44 06:54:18 50° 98° (E) 06:58:34 437.250
STRAND 1 25 Apr 06:52:12 06:56:31 29° 66° (ENE) 07:00:51 437.568
XW-2D 25 Apr 07:02:10 07:05:49 43° 99° (E) 07:09:28 145.860 - 145.880
XW-2B 25 Apr 07:09:00 07:12:43 51° 100° (E) 07:16:26 145.730 - 145.750
HO-68 25 Apr 07:13:05 07:16:50 15° 88° (E) 07:20:34 435.675
CUTE-I 25 Apr 07:14:31 07:19:40 49° 100° (E) 07:24:48 437.470
LilacSat-2 25 Apr 07:17:43 07:21:33 71° 101° (E) 07:25:23 437.200
XW-2C 25 Apr 07:20:45 07:24:34 74° 101° (ESE) 07:28:23 145.795 - 145.815
KAITUO 1B 25 Apr 07:23:01 07:26:46 61° 101° (E) 07:30:29 145.475/437.950
M-CUBED/EXP-1 PRIME 25 Apr 07:23:05 07:27:40 77° 70° (ENE) 07:32:22 437.505
SO-50 25 Apr 07:23:54 07:28:29 67° 120° (ESE) 07:33:03 436.795
CUTE 1.7 + AOD 2 25 Apr 07:25:34 07:25:46 10° 89° (E) 07:25:58 437.475
SEEDS 25 Apr 07:47:44 07:49:24 12° 90° (E) 07:51:02 437.485
XW-2F 25 Apr 07:47:46 07:51:28 51° 286° (WNW) 07:55:09 145.980 - 146.000
YUBILEINY 25 Apr 07:51:18 07:55:17 14° 303° (WNW) 07:59:18 435.215
RS-15 25 Apr 07:51:29 08:03:07 60° 113° (ESE) 08:15:08 29.354- 29.394
AO-7 25 Apr 07:58:31 08:00:42 11° 319° (NW) 08:02:52 .
NUDT-PHONESAT 25 Apr 08:05:00 08:08:27 38° 288° (WNW) 08:11:55 437.300
CUBEBUG 2 25 Apr 08:10:04 08:12:25 15° 92° (E) 08:14:45 437.445
DOVE 4 25 Apr 08:28:32 08:31:31 17° 297° (WNW) 08:34:23 437.250
STRAND 1 25 Apr 08:30:56 08:35:34 35° 263° (W) 08:40:14 437.568
XW-2D 25 Apr 08:37:38 08:39:38 14° 294° (WNW) 08:41:38 145.860 - 145.880
XW-2A 25 Apr 08:42:46 08:46:08 87° 286° (WNW) 08:49:29 145.665 - 145.685
XW-2B 25 Apr 08:44:56 08:46:28 12° 295° (WNW) 08:47:59 145.730 - 145.750
CUTE-I 25 Apr 08:55:20 08:59:22 22° 297° (WNW) 09:03:22 437.470
CUTE 1.7 + AOD 2 25 Apr 08:57:46 09:02:03 70° 285° (WNW) 09:06:19 437.475
HO-68 25 Apr 08:58:15 09:05:30 85° 105° (ESE) 09:12:43 435.675
AAUSAT CUBESAT 2 25 Apr 08:59:10 09:03:03 36° 97° (E) 09:06:55 437.432
ZACube-1 25 Apr 08:59:43 09:02:41 18° 93° (E) 09:05:40 437.345
KAITUO 1B 25 Apr 08:59:56 09:00:15 10° 297° (WNW) 09:00:34 145.475/437.950
M-CUBED/EXP-1 PRIME 25 Apr 09:00:58 09:02:34 12° 266° (W) 09:04:11 437.505
SO-50 25 Apr 09:06:10 09:09:23 18° 319° (NW) 09:12:35 436.795
AO-73 25 Apr 09:07:30 09:10:39 20° 94° (E) 09:13:50 145.935
SEEDS 25 Apr 09:21:14 09:25:26 59° 286° (WNW) 09:29:37 437.485
Oscar 11 25 Apr 09:24:57 09:28:38 27° 95° (E) 09:32:20 .
Tancredo 1 25 Apr 09:29:24 09:32:29 69° 142° (SE) 09:35:35 437.200
UWE-3 25 Apr 09:35:34 09:39:45 83° 101° (ESE) 09:44:00 435.000/436.395/437.385
ISS 25 Apr 09:37:42 09:40:55 64° 142° (SE) 09:44:08 437.550
TIGRISAT 25 Apr 09:41:31 09:45:10 26° 69° (ENE) 09:48:47 435.000
CUBEBUG 2 25 Apr 09:45:18 09:49:16 45° 287° (WNW) 09:53:16 437.445
DELFI C3 25 Apr 09:59:36 10:02:21 18° 93° (E) 10:05:05 145.870
PRISM 25 Apr 10:00:00 10:04:08 77° 75° (ENE) 10:08:19 437.425
UNISAT 6 25 Apr 10:01:34 10:05:47 46° 72° (ENE) 10:09:56 437.425
RS-15 25 Apr 10:04:26 10:16:05 49° 317° (NW) 10:28:00 29.354- 29.394
FO-29 25 Apr 10:16:09 10:22:25 57° 72° (ENE) 10:27:59 435.910
O/OREOS (USA 219) 25 Apr 10:18:39 10:22:03 21° 101° (E) 10:25:27 437.305
ZACube-1 25 Apr 10:35:12 10:39:05 37° 288° (WNW) 10:43:00 437.345
AAUSAT CUBESAT 2 25 Apr 10:35:14 10:38:16 20° 293° (WNW) 10:41:17 437.432
AO-73 25 Apr 10:43:10 10:46:57 33° 289° (WNW) 10:50:48 145.935
QB50P2 25 Apr 10:43:51 10:44:59 11° 61° (ENE) 10:46:06 145.880/145.840
HO-68 25 Apr 10:47:26 10:52:20 20° 305° (NW) 10:57:14 435.675
PCSat 25 Apr 10:53:00 10:56:46 19° 43° (NE) 11:00:31 145.827
Oscar 11 25 Apr 11:01:02 11:04:43 27° 291° (WNW) 11:08:22 .
OBJECT BX 25 Apr 11:04:44 11:08:25 82° 100° (E) 11:12:05 145.990 - 145.960
NANOSAT C BR1 25 Apr 11:05:51 11:08:26 16° 65° (ENE) 11:11:01 145.865
Tancredo 1 25 Apr 11:06:11 11:08:39 21° 340° (NNW) 11:11:08 437.200
ISS 25 Apr 11:14:55 11:17:37 23° 340° (NNW) 11:20:19 437.550
TIGRISAT 25 Apr 11:17:59 11:21:46 28° 264° (W) 11:25:30 435.000
EO-79 25 Apr 11:31:12 11:34:57 32° 70° (ENE) 11:38:43 145.935-145.965
DELFI C3 25 Apr 11:33:34 11:37:14 35° 289° (WNW) 11:40:52 145.870
DUCHIFAT 1 25 Apr 11:35:19 11:38:57 29° 69° (ENE) 11:42:36 145.980
UNISAT 6 25 Apr 11:40:02 11:42:43 16° 268° (W) 11:45:21 437.425
AIST 2D 25 Apr 11:41:18 11:44:46 78° 76° (ENE) 11:48:15 435.315
O/OREOS (USA 219) 25 Apr 11:56:51 12:01:10 39° 298° (WNW) 12:05:31 437.305
FO-29 25 Apr 12:02:57 12:07:42 22° 266° (W) 12:12:08 435.910
ESTCUBE 1 25 Apr 12:08:56 12:13:04 33° 97° (E) 12:17:09 437.505/2401.250
POLYITAN 1 25 Apr 12:09:25 12:13:38 88° 82° (E) 12:17:52 437.675
LO-87 25 Apr 12:14:02 12:17:37 76° 101° (ESE) 12:21:10 145.935 - 145.965
QB50P2 25 Apr 12:15:56 12:20:10 72° 258° (WSW) 12:24:24 145.880/145.840
RS-15 25 Apr 12:23:11 12:32:45 25° 349° (N) 12:42:17 29.354- 29.394
VELOX 1 25 Apr 12:30:15 12:32:51 15° 92° (E) 12:35:27 145.980
PCSat 25 Apr 12:35:22 12:40:50 81° 243° (WSW) 12:46:14 145.827
NANOSAT C BR1 25 Apr 12:39:44 12:43:46 45° 261° (W) 12:47:50 145.865
BUGSAT 1 25 Apr 12:43:08 12:47:11 53° 74° (ENE) 12:51:13 437.445
Tancredo 1 25 Apr 12:43:51 12:45:26 13° 0° (N) 12:47:01 437.200
Gurwin Techsat 1B 25 Apr 12:48:55 12:51:59 16° 60° (ENE) 12:55:02 435.225
ISS 25 Apr 12:53:06 12:54:58 14° 360° (N) 12:56:49 437.550
Oscar 19 25 Apr 12:58:11 13:02:36 30° 67° (ENE) 13:07:04 437.125/150
50 SAT 25 Apr 12:59:35 13:01:42 15° 93° (E) 13:03:47 437.505
AO-85 25 Apr 13:04:29 13:08:28 36° 117° (ESE) 13:12:14 145.980
EO-79 25 Apr 13:07:30 13:10:45 21° 266° (W) 13:14:01 145.935-145.965
DUCHIFAT 1 25 Apr 13:11:15 13:14:36 23° 265° (W) 13:17:59 145.980
AO-7 25 Apr 13:22:01 13:25:27 13° 43° (NE) 13:28:54 .
DX 1 25 Apr 13:26:31 13:30:01 23° 95° (E) 13:33:29 434.975-435.025
SPROUT 25 Apr 13:43:21 13:47:37 87° 283° (WNW) 13:51:51 437.525
ESTCUBE 1 25 Apr 13:46:01 13:49:41 24° 293° (WNW) 13:53:20 437.505/2401.250
YUBILEINY 25 Apr 14:04:22 14:07:32 12° 55° (NE) 14:10:42 435.215
VELOX 1 25 Apr 14:05:18 14:09:35 49° 288° (WNW) 14:13:50 145.980
SO-50 25 Apr 14:16:45 14:18:05 11° 34° (NE) 14:19:24 436.795
Tancredo 1 25 Apr 14:19:40 14:22:12 22° 20° (NNE) 14:24:44 437.200
BUGSAT 1 25 Apr 14:21:04 14:22:51 12° 269° (W) 14:24:37 437.445
ITAMSAT 1 25 Apr 14:21:59 14:25:20 18° 61° (ENE) 14:28:41 435.822/435.867
Gurwin Techsat 1B 25 Apr 14:25:59 14:31:16 75° 256° (WSW) 14:36:37 435.225
BEESAT 2 25 Apr 14:28:09 14:30:53 18° 111° (ESE) 14:33:38 435.950
ISS 25 Apr 14:29:37 14:32:19 23° 20° (NNE) 14:34:59 437.550
BEESAT 3 25 Apr 14:31:22 14:35:12 53° 119° (ESE) 14:39:06 437.485
50 SAT 25 Apr 14:31:37 14:34:42 30° 289° (WNW) 14:37:46 437.505
UKube-1 25 Apr 14:32:03 14:36:23 85° 102° (ESE) 14:40:41 .
Oscar 19 25 Apr 14:37:10 14:41:49 34° 263° (W) 14:46:31 437.125/150
RS-15 25 Apr 14:40:17 14:50:47 30° 25° (NNE) 15:00:58 29.354- 29.394
AO-85 25 Apr 14:45:31 14:48:55 23° 313° (NW) 14:52:13 145.980
BEESAT 25 Apr 14:52:45 14:54:13 11° 89° (E) 14:55:42 436.000
DX 1 25 Apr 15:02:20 15:06:13 32° 291° (WNW) 15:10:03 434.975-435.025
AO-7 25 Apr 15:08:25 15:16:25 56° 65° (ENE) 15:24:27 .
ITUPSAT 1 25 Apr 15:30:10 15:34:16 28° 96° (E) 15:38:21 437.325
SO-50 25 Apr 15:54:59 15:59:28 61° 54° (NE) 16:03:55 436.795
Tancredo 1 25 Apr 15:55:16 15:58:20 61° 219° (SW) 16:01:24 437.200
YUBILEINY 25 Apr 15:57:43 16:06:25 62° 78° (ENE) 16:15:05 435.215
ITAMSAT 1 25 Apr 15:59:08 16:04:17 63° 259° (WSW) 16:09:27 435.822/435.867
BEESAT 2 25 Apr 16:04:34 16:08:20 40° 309° (NW) 16:12:09 435.950
ISS 25 Apr 16:05:47 16:09:01 65° 219° (SW) 16:12:14 437.550
BEESAT 3 25 Apr 16:10:24 16:13:06 17° 317° (NW) 16:15:49 437.485
BEESAT 25 Apr 16:27:45 16:32:31 75° 285° (WNW) 16:37:16 436.000
MOZHAYETS 4 25 Apr 16:33:36 16:38:12 64° 101° (E) 16:42:46
RS-15 25 Apr 16:53:29 17:05:50 75° 54° (NE) 17:17:33 29.354- 29.394
KKS-1 25 Apr 16:56:57 17:00:07 19° 93° (E) 17:03:16 437.445
CUTE-I 25 Apr 17:00:43 17:02:35 12° 57° (ENE) 17:04:27 437.470
AO-7 25 Apr 17:02:12 17:09:29 34° 263° (W) 17:16:48 .
ITUPSAT 1 25 Apr 17:07:51 17:12:04 32° 292° (WNW) 17:16:16 437.325
CUBESAT XI-V 25 Apr 17:21:02 17:25:21 35° 97° (E) 17:29:39 437.345
STARS 25 Apr 17:32:31 17:35:42 20° 94° (E) 17:38:52 437.465
SO-50 25 Apr 17:36:56 17:39:24 15° 251° (WSW) 17:41:53 436.795
XW-2D 25 Apr 17:44:04 17:46:58 22° 69° (ENE) 17:49:53 145.860 - 145.880
HO-68 25 Apr 17:44:12 17:47:14 13° 50° (NE) 17:50:16 435.675
XW-2B 25 Apr 17:50:45 17:53:49 25° 70° (ENE) 17:56:55 145.730 - 145.750
DOVE 4 25 Apr 17:53:59 17:59:09 55° 73° (ENE) 18:04:15 437.250
YUBILEINY 25 Apr 17:55:28 18:02:34 29° 278° (W) 18:09:40 435.215
LilacSat-2 25 Apr 17:59:48 18:03:11 33° 72° (ENE) 18:06:37 437.200
XW-2C 25 Apr 18:02:13 18:05:37 34° 72° (ENE) 18:09:02 145.795 - 145.815
KAITUO 1B 25 Apr 18:03:26 18:06:35 28° 71° (ENE) 18:09:47 145.475/437.950
MOZHAYETS 4 25 Apr 18:12:24 18:14:49 14° 298° (WNW) 18:17:14
